When you browse on this site, cookies collect data to enhance your experience and personalize the content and advertising you see.
Visit our Privacy Policy to learn more. By continuing to use the site, you agree to this use of cookies and data.
  • în România
  • Lista ţărilor
  • Pe 7 zile
  • Temperatura apei
  • Hartă satelitară
  • Meteo pe hartă
  • Widget-uri
  • user-avatar
    Intrare

    Meteo pe oră la Staronakaryakovo

    Astăzi, 18 Februarie, Luni

    Timp Temperatura Precipitaţii Vânt Presiune Umiditate
    00:00 -6°C° 0.1 mm 5 m/s 727 mmHg 91%
    01:00 -6°C° 0.1 mm 6 m/s 726 mmHg 91%
    02:00 -6°C° 0.2 mm 6 m/s 726 mmHg 91%
    03:00 -6°C° 0.2 mm 6 m/s 725 mmHg 92%
    04:00 -6°C° 0.2 mm 5 m/s 725 mmHg 92%
    05:00 -6°C° 0.3 mm 5 m/s 724 mmHg 93%
    06:00 -6°C° 0.3 mm 5 m/s 724 mmHg 93%
    07:00 -6°C° 0.3 mm 5 m/s 724 mmHg 93%
    08:00 -6°C° 0.3 mm 5 m/s 724 mmHg 93%
    09:00 -6°C° 0.3 mm 5 m/s 724 mmHg 93%
    10:00 -6°C° 0.3 mm 5 m/s 724 mmHg 92%
    11:00 -4°C° 0.2 mm 4 m/s 724 mmHg 91%
    12:00 -4°C° 0.2 mm 4 m/s 724 mmHg 91%
    13:00 -3°C° 0.2 mm 4 m/s 724 mmHg 90%
    14:00 -2°C° 0.2 mm 3 m/s 724 mmHg 91%
    15:00 -2°C° 0.2 mm 2 m/s 725 mmHg 91%
    16:00 -2°C° 0.2 mm 2 m/s 725 mmHg 92%
    17:00 -1°C° 0.2 mm 1 m/s 725 mmHg 93%
    18:00 -1°C° 0.2 mm 1 m/s 726 mmHg 94%
    19:00 -2°C° 0.2 mm 1 m/s 726 mmHg 95%
    20:00 -2°C° 0.2 mm 1 m/s 727 mmHg 95%
    21:00 -2°C° 0.2 mm 1 m/s 727 mmHg 95%
    22:00 -2°C° 0.2 mm 1 m/s 728 mmHg 95%
    23:00 -4°C° 0.2 mm 2 m/s 728 mmHg 96%

    Mâine, 19 Februarie, Marţi

    Timp Temperatura Precipitaţii Vânt Presiune Umiditate
    00:00 -5°C° 0.2 mm 2 m/s 729 mmHg 96%
    01:00 -5°C° 0.2 mm 2 m/s 730 mmHg 96%
    02:00 -8°C° 0.2 mm 4 m/s 730 mmHg 94%
    03:00 -9°C° 0.2 mm 6 m/s 731 mmHg 92%
    04:00 -11°C° 0.2 mm 7 m/s 732 mmHg 90%
    05:00 -12°C° 0 mm 7 m/s 733 mmHg 90%
    06:00 -14°C° 0 mm 7 m/s 733 mmHg 90%
    07:00 -15°C° 0 mm 7 m/s 734 mmHg 89%
    08:00 -17°C° 0 mm 7 m/s 735 mmHg 89%
    09:00 -18°C° 0 mm 7 m/s 736 mmHg 89%
    10:00 -18°C° 0 mm 7 m/s 737 mmHg 88%
    11:00 -17°C° 0 mm 6 m/s 737 mmHg 89%
    12:00 -17°C° 0 mm 6 m/s 738 mmHg 89%
    13:00 -18°C° 0 mm 6 m/s 738 mmHg 89%
    14:00 -17°C° 0 mm 5 m/s 739 mmHg 90%
    15:00 -17°C° 0 mm 5 m/s 739 mmHg 90%
    16:00 -17°C° 0 mm 5 m/s 740 mmHg 90%
    17:00 -17°C° 0 mm 4 m/s 741 mmHg 91%
    18:00 -18°C° 0 mm 4 m/s 741 mmHg 92%
    19:00 -19°C° 0 mm 4 m/s 742 mmHg 93%
    20:00 -19°C° 0 mm 3 m/s 743 mmHg 94%
    21:00 -19°C° 0 mm 2 m/s 743 mmHg 95%
    22:00 -20°C° 0 mm 2 m/s 744 mmHg 96%
    23:00 -21°C° 0 mm 2 m/s 744 mmHg 96%

    Poimâine, 20 Februarie, Miercuri

    Timp Temperatura Precipitaţii Vânt Presiune Umiditate
    00:00 -19°C° 0 mm 1 m/s 744 mmHg 97%
    01:00 -19°C° 0 mm 1 m/s 744 mmHg 97%
    02:00 -20°C° 0 mm 1 m/s 744 mmHg 97%
    03:00 -21°C° 0 mm 1 m/s 744 mmHg 97%
    04:00 -21°C° 0 mm 0 m/s 745 mmHg 98%
    05:00 -21°C° 0 mm 1 m/s 745 mmHg 97%
    06:00 -21°C° 0 mm 1 m/s 745 mmHg 96%
    07:00 -24°C° 0 mm 2 m/s 745 mmHg 95%
    08:00 -23°C° 0 mm 2 m/s 745 mmHg 93%
    09:00 -22°C° 0 mm 3 m/s 745 mmHg 92%
    10:00 -21°C° 0 mm 3 m/s 745 mmHg 91%
    11:00 -20°C° 0 mm 4 m/s 745 mmHg 91%
    12:00 -19°C° 0 mm 4 m/s 745 mmHg 91%
    13:00 -18°C° 0 mm 5 m/s 745 mmHg 92%
    14:00 -18°C° 0 mm 5 m/s 744 mmHg 92%
    15:00 -17°C° 0 mm 5 m/s 744 mmHg 92%
    16:00 -17°C° 0 mm 6 m/s 744 mmHg 92%
    17:00 -16°C° 0.1 mm 6 m/s 743 mmHg 92%
    18:00 -16°C° 0.1 mm 6 m/s 743 mmHg 92%
    19:00 -17°C° 0.1 mm 7 m/s 743 mmHg 92%
    20:00 -17°C° 0 mm 7 m/s 742 mmHg 92%
    21:00 -17°C° 0 mm 7 m/s 742 mmHg 92%
    22:00 -15°C° 0 mm 7 m/s 742 mmHg 91%
    23:00 -15°C° 0.1 mm 7 m/s 741 mmHg 92%

    21 Februarie, Joi

    Timp Temperatura Precipitaţii Vânt Presiune Umiditate
    00:00 -15°C° 0.1 mm 7 m/s 741 mmHg 92%
    01:00 -15°C° 0.1 mm 7 m/s 741 mmHg 92%
    02:00 -15°C° 0.1 mm 7 m/s 741 mmHg 92%
    03:00 -14°C° 0.1 mm 7 m/s 740 mmHg 92%
    04:00 -13°C° 0.1 mm 7 m/s 740 mmHg 92%
    05:00 -12°C° 0.1 mm 7 m/s 740 mmHg 92%
    06:00 -12°C° 0.1 mm 7 m/s 740 mmHg 92%
    07:00 -12°C° 0.1 mm 7 m/s 740 mmHg 92%
    08:00 -11°C° 0.1 mm 7 m/s 740 mmHg 92%
    09:00 -11°C° 0.1 mm 7 m/s 740 mmHg 92%
    10:00 -11°C° 0.1 mm 7 m/s 740 mmHg 92%
    11:00 -11°C° 0.1 mm 7 m/s 740 mmHg 92%
    12:00 -11°C° 0.1 mm 7 m/s 740 mmHg 92%
    13:00 -11°C° 0.1 mm 7 m/s 740 mmHg 92%
    14:00 -9°C° 0.2 mm 7 m/s 740 mmHg 92%
    15:00 -9°C° 0.2 mm 7 m/s 740 mmHg 92%
    16:00 -8°C° 0.2 mm 7 m/s 740 mmHg 92%
    17:00 -8°C° 0.3 mm 7 m/s 740 mmHg 92%
    18:00 -8°C° 0.3 mm 7 m/s 740 mmHg 92%
    19:00 -9°C° 0.3 mm 7 m/s 740 mmHg 92%
    20:00 -9°C° 0.4 mm 7 m/s 740 mmHg 92%
    21:00 -9°C° 0.4 mm 7 m/s 740 mmHg 92%
    22:00 -9°C° 0.4 mm 7 m/s 740 mmHg 93%
    23:00 -8°C° 0.4 mm 7 m/s 740 mmHg 92%

    22 Februarie, Vineri

    Timp Temperatura Precipitaţii Vânt Presiune Umiditate
    00:00 -8°C° 0.4 mm 7 m/s 740 mmHg 92%
    01:00 -8°C° 0.4 mm 6 m/s 740 mmHg 92%
    02:00 -7°C° 0.4 mm 7 m/s 740 mmHg 92%
    03:00 -7°C° 0.4 mm 7 m/s 739 mmHg 92%
    04:00 -7°C° 0.4 mm 7 m/s 739 mmHg 92%
    05:00 -7°C° 0.3 mm 7 m/s 739 mmHg 91%
    06:00 -6°C° 0.3 mm 7 m/s 739 mmHg 91%
    07:00 -6°C° 0.3 mm 7 m/s 738 mmHg 90%
    08:00 -4°C° 0.2 mm 7 m/s 738 mmHg 90%
    09:00 -4°C° 0.2 mm 7 m/s 738 mmHg 89%
    10:00 -4°C° 0.2 mm 7 m/s 738 mmHg 89%
    11:00 -3°C° 0.2 mm 7 m/s 738 mmHg 90%
    12:00 -3°C° 0.2 mm 7 m/s 739 mmHg 90%
    13:00 -3°C° 0.2 mm 6 m/s 739 mmHg 91%
    14:00 -3°C° 0.1 mm 6 m/s 739 mmHg 91%
    15:00 -2°C° 0.1 mm 5 m/s 739 mmHg 90%
    16:00 -2°C° 0.1 mm 5 m/s 739 mmHg 90%
    17:00 -2°C° 0.2 mm 4 m/s 739 mmHg 91%
    18:00 -3°C° 0.2 mm 4 m/s 739 mmHg 92%
    19:00 -2°C° 0.2 mm 3 m/s 739 mmHg 94%
    20:00 -2°C° 0.6 mm 3 m/s 739 mmHg 94%
    21:00 -3°C° 0.6 mm 4 m/s 739 mmHg 94%
    22:00 -3°C° 0.6 mm 4 m/s 739 mmHg 94%
    23:00 -2°C° 0.1 mm 3 m/s 738 mmHg 95%

    23 Februarie, Sâmbătă

    Timp Temperatura Precipitaţii Vânt Presiune Umiditate
    00:00 -3°C° 0.1 mm 2 m/s 738 mmHg 96%
    01:00 -1°C° 0.1 mm 1 m/s 738 mmHg 96%
    02:00 -2°C° 0.1 mm 1 m/s 738 mmHg 96%
    03:00 -2°C° 0.1 mm 1 m/s 738 mmHg 96%
    04:00 -4°C° 0.1 mm 0 m/s 738 mmHg 96%
    05:00 -3°C° 0.6 mm 1 m/s 739 mmHg 96%
    06:00 -5°C° 0.6 mm 2 m/s 739 mmHg 96%
    07:00 -6°C° 0.6 mm 3 m/s 740 mmHg 97%
    08:00 -8°C° 0.6 mm 4 m/s 740 mmHg 96%
    09:00 -9°C° 0.6 mm 4 m/s 741 mmHg 96%
    10:00 -9°C° 0.6 mm 4 m/s 741 mmHg 95%
    11:00 -9°C° 0.3 mm 4 m/s 742 mmHg 95%
    12:00 -8°C° 0.3 mm 4 m/s 743 mmHg 94%
    13:00 -7°C° 0.3 mm 4 m/s 743 mmHg 94%
    14:00 -7°C° 0.2 mm 4 m/s 744 mmHg 93%
    15:00 -7°C° 0.2 mm 4 m/s 744 mmHg 93%
    16:00 -7°C° 0.2 mm 4 m/s 745 mmHg 93%
    17:00 -8°C° 0.2 mm 4 m/s 745 mmHg 94%
    18:00 -8°C° 0.2 mm 4 m/s 746 mmHg 95%
    19:00 -9°C° 0.2 mm 4 m/s 747 mmHg 95%
    20:00 -9°C° 0.2 mm 4 m/s 747 mmHg 96%
    21:00 -9°C° 0.2 mm 3 m/s 748 mmHg 96%
    22:00 -9°C° 0.2 mm 3 m/s 748 mmHg 97%
    23:00 -10°C° 0.1 mm 3 m/s 748 mmHg 97%
    Arată mai mult